Location: Goettingen
(51.5300°N, 9.9433°E)
Time: 18:20:52
(UTC+02:00)

ISS - Pass Details

Date: 12 May 2026
Orbit: 414 x 424 km, 51.6° (Epoch: 13 May)

Event Time Altitude Azimuth Distance (km) Brightness Sun altitude
Rises 22:30:34 0° 254° (WSW) 2,348 0.4 -11.3°
Reaches altitude 10° 22:32:39 10° 253° (WSW) 1,487 -0.7 -11.5°
Maximum altitude 22:35:59 78° 167° (SSE) 429 -3.9 -11.9°
Drops below altitude 10° 22:39:20 10° 82° (E) 1,493 -1.2 -12.2°
Enters shadow 22:40:30 - 81° (E) 1,972 -0.6 -12.3°
